Time,TemperatureF,DewpointF,PressureIn,WindDirection,WindDirectionDegrees,WindSpeedMPH,WindSpeedGustMPH,Humidity,HourlyPrecipIn,Conditions,Clouds,dailyrainin,SoftwareType,DateUTC
2015-08-31 00:03:00,76.0,-99.9,29.99,ENE,77,4.0,7.0,-999,-99.99,,,-99.99,,2015-08-31 04:03:00,
2015-08-31 00:26:00,76.0,-99.9,30.00,ESE,121,2.0,3.0,-999,-99.99,,,-99.99,,2015-08-31 04:26:00,
2015-08-31 00:44:00,76.0,-99.9,30.00,SE,131,4.0,6.0,-999,-99.99,,,-99.99,,2015-08-31 04:44:00,
2015-08-31 01:04:00,76.0,-99.9,29.99,SE,124,4.0,9.0,-999,-99.99,,,-99.99,,2015-08-31 05:04:00,
2015-08-31 01:15:00,76.0,-99.9,29.98,ESE,123,4.0,7.0,-999,-99.99,,,-99.99,,2015-08-31 05:15:00,
2015-08-31 01:26:00,76.0,-99.9,29.98,ESE,123,4.0,7.0,-999,-99.99,,,-99.99,,2015-08-31 05:26:00,
2015-08-31 01:36:00,76.0,-99.9,29.98,SE,125,4.0,6.0,-999,-99.99,,,-99.99,,2015-08-31 05:36:00,
2015-08-31 01:44:00,76.0,-99.9,29.97,ESE,120,3.0,5.0,-999,-99.99,,,-99.99,,2015-08-31 05:44:00,
2015-08-31 02:14:00,76.0,-99.9,29.97,ESE,116,5.0,9.0,-999,-99.99,,,-99.99,,2015-08-31 06:14:00,
2015-08-31 03:33:00,77.0,-99.9,29.96,ESE,117,5.0,6.0,-999,-99.99,,,-99.99,,2015-08-31 07:33:00,
2015-08-31 04:23:00,77.0,-99.9,29.96,ESE,119,3.0,6.0,-999,-99.99,,,-99.99,,2015-08-31 08:23:00,
2015-08-31 04:44:00,77.0,-99.9,29.95,ESE,119,2.0,4.0,-999,-99.99,,,-99.99,,2015-08-31 08:44:00,
2015-08-31 04:54:00,77.0,-99.9,29.95,East,95,2.0,4.0,-999,-99.99,,,-99.99,,2015-08-31 08:54:00,
2015-08-31 05:13:00,77.0,-99.9,29.95,ESE,117,3.0,5.0,-999,-99.99,,,-99.99,,2015-08-31 09:13:00,
2015-08-31 05:36:00,77.0,-99.9,29.95,ESE,104,3.0,-999.0,-999,-99.99,,,-99.99,,2015-08-31 09:36:00,
2015-08-31 06:13:00,77.0,-99.9,29.95,ESE,111,3.0,5.0,-999,-99.99,,,-99.99,,2015-08-31 10:13:00,
2015-08-31 06:33:00,77.0,-99.9,29.96,ESE,112,4.0,6.0,-999,-99.99,,,-99.99,,2015-08-31 10:33:00,
2015-08-31 06:44:00,77.0,-99.9,29.95,ESE,114,4.0,6.0,-999,-99.99,,,-99.99,,2015-08-31 10:44:00,
2015-08-31 07:24:00,77.0,-99.9,29.96,ESE,111,4.0,7.0,-999,-99.99,,,-99.99,,2015-08-31 11:24:00,
2015-08-31 07:54:00,77.0,-99.9,29.96,ESE,108,5.0,9.0,-999,-99.99,,,-99.99,,2015-08-31 11:54:00,
2015-08-31 08:04:00,77.0,-99.9,29.97,SE,124,4.0,7.0,-999,-99.99,,,-99.99,,2015-08-31 12:04:00,
2015-08-31 08:14:00,78.0,-99.9,29.97,SE,130,4.0,9.0,-999,-99.99,,,-99.99,,2015-08-31 12:14:00,
2015-08-31 09:14:00,82.0,-99.9,29.99,SSE,154,9.0,12.0,-999,-99.99,,,-99.99,,2015-08-31 13:14:00,
2015-08-31 09:34:00,81.0,-99.9,29.99,SSE,152,8.0,13.0,-999,-99.99,,,-99.99,,2015-08-31 13:34:00,
2015-08-31 09:44:00,82.0,-99.9,29.99,SSE,147,7.0,10.0,-999,-99.99,,,-99.99,,2015-08-31 13:44:00,
2015-08-31 09:54:00,82.0,-99.9,29.99,SE,146,7.0,11.0,-999,-99.99,,,-99.99,,2015-08-31 13:54:00,
2015-08-31 10:23:00,83.0,-99.9,30.00,SSE,152,6.0,9.0,-999,-99.99,,,-99.99,,2015-08-31 14:23:00,
2015-08-31 10:33:00,83.0,-99.9,30.00,SSE,150,11.0,15.0,-999,-99.99,,,-99.99,,2015-08-31 14:33:00,
2015-08-31 10:44:00,83.0,-99.9,30.01,SE,142,12.0,17.0,-999,-99.99,,,-99.99,,2015-08-31 14:44:00,
2015-08-31 10:54:00,84.0,-99.9,30.00,SE,133,9.0,16.0,-999,-99.99,,,-99.99,,2015-08-31 14:54:00,
2015-08-31 11:13:00,85.0,-99.9,30.02,SE,144,10.0,17.0,-999,-99.99,,,-99.99,,2015-08-31 15:13:00,
2015-08-31 11:54:00,85.0,-99.9,30.03,SSE,153,6.0,13.0,-999,-99.99,,,-99.99,,2015-08-31 15:54:00,
2015-08-31 12:04:00,85.0,-99.9,30.03,SSE,157,5.0,12.0,-999,-99.99,,,-99.99,,2015-08-31 16:04:00,
2015-08-31 12:13:00,85.0,-99.9,30.03,SSE,150,6.0,9.0,-999,-99.99,,,-99.99,,2015-08-31 16:13:00,
2015-08-31 12:23:00,85.0,-99.9,30.03,SSE,150,6.0,9.0,-999,-99.99,,,-99.99,,2015-08-31 16:23:00,
2015-08-31 12:36:00,83.0,-99.9,30.03,SSW,196,7.0,15.0,-999,-99.99,,,-99.99,,2015-08-31 16:36:00,
2015-08-31 13:13:00,80.0,-99.9,30.04,South,187,5.0,12.0,-999,-99.99,,,-99.99,,2015-08-31 17:13:00,
2015-08-31 13:34:00,80.0,-99.9,30.03,South,169,5.0,8.0,-999,-99.99,,,-99.99,,2015-08-31 17:34:00,
2015-08-31 13:45:00,80.0,-99.9,30.03,South,172,4.0,9.0,-999,-99.99,,,-99.99,,2015-08-31 17:45:00,